Date String (YYYY-MM-DD hh:mm:ss) UTC,Instrument flags,absolute air pressure of the measurement (hPa),sample flow rate (lpm),inlet stack bypass flow (lpm),air temperature of the measurement (°C),ambient temperature measured by the external sensor (°C),aerosol sample conditioner tube jacket temperature (°C),OPC LED temperature (°C),internal box temperature (°C),relative humidity of the measurement (%),span deviation,mass concentration of particles derived from Lorenz-Mie calculation of OPC scattering (μg/m³),mass concentration of particles derived from Lorenz-Mie calculation of OPC scattering (μg/m³),mass concentration of particles derived from Lorenz-Mie calculation of OPC scattering (μg/m³)
DateTimeUTC,F1_M11,P_M11,Q1_M11,Q2_M11,T1_M11,T2_M11,T3_M11,T4_M11,T5_M11,U1_M11,ZSPAN_M11,X0_M11,X2_M11,X1_M11
2024-03-13 00:00:00,SystemResetWarning,0821.8,5.01,000.00,023.3,022.6,000.0,031.8,025.1,12.0,0000.0,0017.86,0004.00,0002.17
2024-03-13 00:01:00,SystemResetWarning,0821.8,5.01,000.00,023.3,022.6,000.0,031.8,025.1,12.0,0000.0,0018.04,0003.97,0002.15
2024-03-13 00:02:00,SystemResetWarning,0821.8,5.00,000.00,023.3,022.7,000.0,031.8,025.1,11.8,0000.0,0017.59,0004.01,0002.17
2024-03-13 00:03:00,SystemResetWarning,0821.8,4.99,000.00,023.4,022.7,000.0,031.8,025.1,11.8,0000.0,0016.92,0004.02,0002.20
2024-03-13 00:04:00,SystemResetWarning,0821.8,4.99,000.00,023.4,022.7,000.0,031.8,025.1,11.8,0000.0,0015.86,0004.08,0002.21
2024-03-13 00:05:00,SystemResetWarning,0821.9,4.99,000.00,023.4,022.7,000.0,031.8,025.2,11.7,0000.0,0016.98,0004.14,0002.24
2024-03-13 00:06:00,SystemResetWarning,0821.9,5.00,000.00,023.4,022.7,000.0,031.8,025.2,11.7,0000.0,0017.57,0004.16,0002.27
2024-03-13 00:07:00,SystemResetWarning,0821.9,5.01,000.00,023.4,022.7,000.0,031.8,025.2,11.6,0000.0,0017.65,0004.13,0002.28
2024-03-13 00:08:00,SystemResetWarning,0821.9,5.01,000.00,023.4,022.7,000.0,031.8,025.2,11.5,0000.0,0018.44,0004.10,0002.27
2024-03-13 00:09:00,SystemResetWarning,0821.9,5.00,000.00,023.4,022.7,000.0,031.8,025.2,11.4,0000.0,0019.83,0004.17,0002.29
2024-03-13 00:10:00,SystemResetWarning,0822.0,5.00,000.00,023.4,022.7,000.0,031.8,025.2,11.3,0000.0,0021.53,0004.21,0002.31
2024-03-13 00:11:00,SystemResetWarning,0822.0,4.99,000.00,023.4,022.7,000.0,031.8,025.2,11.6,0000.0,0021.45,0004.18,0002.31
2024-03-13 00:12:00,SystemResetWarning,0821.9,5.00,000.00,023.4,022.7,000.0,031.9,025.2,11.5,0000.0,0020.62,0004.20,0002.34
2024-03-13 00:13:00,SystemResetWarning,0822.0,5.00,000.00,023.4,022.7,000.0,031.9,025.2,11.5,0000.0,0019.92,0004.19,0002.36
2024-03-13 00:14:00,SystemResetWarning,0822.0,5.00,000.00,023.4,022.7,000.0,031.9,025.2,11.4,0000.0,0019.84,0004.18,0002.36
2024-03-13 00:15:00,SystemResetWarning,0822.0,5.00,000.00,023.4,022.7,000.0,031.9,025.2,11.5,0000.0,0020.72,0004.14,0002.35
2024-03-13 00:16:00,SystemResetWarning,0822.0,5.00,000.00,023.4,022.7,000.0,031.9,025.2,11.6,0000.0,0019.21,0004.14,0002.35
2024-03-13 00:17:00,SystemResetWarning,0822.0,5.01,000.00,023.4,022.7,000.0,031.9,025.2,11.5,0000.0,0018.21,0004.14,0002.36
2024-03-13 00:18:00,SystemResetWarning,0821.9,5.01,000.00,023.4,022.7,000.0,031.9,025.2,11.5,0000.0,0019.73,0004.14,0002.36
2024-03-13 00:19:00,SystemResetWarning,0822.0,4.99,000.00,023.4,022.7,000.0,031.9,025.2,11.4,0000.0,0020.12,0004.16,0002.40
2024-03-13 00:20:00,SystemResetWarning,0822.0,5.00,000.00,023.4,022.7,000.0,031.9,025.2,11.5,0000.0,0020.04,0004.18,0002.42
2024-03-13 00:21:00,SystemResetWarning,0822.0,5.00,000.00,023.4,022.8,000.0,031.9,025.2,11.6,0000.0,0018.58,0004.22,0002.44
2024-03-13 00:22:00,SystemResetWarning,0822.0,5.00,000.00,023.4,022.7,000.0,031.9,025.2,11.5,0000.0,0018.77,0004.30,0002.48
2024-03-13 00:23:00,SystemResetWarning,0822.0,5.00,000.00,023.4,022.8,000.0,031.9,025.3,11.3,0000.0,0019.34,0004.32,0002.51
2024-03-13 00:24:00,SystemResetWarning,0822.0,5.00,000.00,023.4,022.8,000.0,031.9,025.2,11.2,0000.0,0019.76,0004.33,0002.52
2024-03-13 00:25:00,SystemResetWarning,0822.0,5.00,000.00,023.5,022.8,000.0,031.9,025.3,11.2,0000.0,0020.18,0004.39,0002.56
2024-03-13 00:26:00,SystemResetWarning,0821.9,5.00,000.00,023.5,022.8,000.0,031.9,025.3,11.2,0000.0,0019.09,0004.40,0002.60
2024-03-13 00:27:00,SystemResetWarning,0821.9,5.01,000.00,023.5,022.8,000.0,031.9,025.3,11.2,0000.0,0020.76,0004.39,0002.66
2024-03-13 00:28:00,SystemResetWarning,0821.9,5.00,000.00,023.5,022.8,000.0,031.9,025.3,11.1,0000.0,0022.77,0004.41,0002.70
2024-03-13 00:29:00,SystemResetWarning,0822.0,5.00,000.00,023.5,022.8,000.0,031.9,025.3,11.1,0000.0,0021.58,0004.41,0002.75
2024-03-13 00:30:00,SystemResetWarning,0821.9,4.99,000.00,023.5,022.8,000.0,031.9,025.3,11.3,0000.0,0019.88,0004.47,0002.79
2024-03-13 00:31:00,SystemResetWarning,0822.0,5.00,000.00,023.5,022.8,000.0,031.9,025.3,11.3,0000.0,0018.84,0004.48,0002.81
2024-03-13 00:32:00,SystemResetWarning,0821.9,5.00,000.00,023.5,022.8,000.0,032.0,025.3,11.4,0000.0,0020.06,0004.45,0002.82
2024-03-13 00:33:00,SystemResetWarning,0821.9,5.00,000.00,023.5,022.8,000.0,032.0,025.3,11.4,0000.0,0020.75,0004.39,0002.84
2024-03-13 00:34:00,SystemResetWarning,0822.0,5.01,000.00,023.5,022.8,000.0,032.0,025.3,11.5,0000.0,0020.62,0004.41,0002.87
2024-03-13 00:35:00,SystemResetWarning,0822.0,5.00,000.00,023.5,022.8,000.0,032.0,025.3,11.5,0000.0,0020.06,0004.43,0002.88
2024-03-13 00:36:00,SystemResetWarning,0822.0,5.00,000.00,023.5,022.8,000.0,032.0,025.3,11.5,0000.0,0022.10,0004.38,0002.87
2024-03-13 00:37:00,SystemResetWarning,0822.0,4.99,000.00,023.5,022.8,000.0,032.0,025.3,11.5,0000.0,0023.83,0004.41,0002.88
2024-03-13 00:38:00,SystemResetWarning,0822.0,4.99,000.00,023.5,022.8,000.0,032.0,025.3,11.5,0000.0,0022.73,0004.46,0002.87
2024-03-13 00:39:00,SystemResetWarning,0822.0,5.00,000.00,023.5,022.8,000.0,032.0,025.3,11.5,0000.0,0021.55,0004.50,0002.87
2024-03-13 00:40:00,SystemResetWarning,0822.0,5.00,000.00,023.5,022.8,000.0,032.0,025.3,11.5,0000.0,0022.48,0004.56,0002.83
2024-03-13 00:41:00,SystemResetWarning,0822.0,5.00,000.00,023.5,022.8,000.0,032.0,025.4,11.5,0000.0,0023.04,0004.57,0002.82
2024-03-13 00:42:00,SystemResetWarning,0822.0,5.01,000.00,023.5,022.8,000.0,032.0,025.3,11.4,0000.0,0023.21,0004.56,0002.83
2024-03-13 00:43:00,SystemResetWarning,0822.0,5.01,000.00,023.5,022.8,000.0,032.0,025.4,11.2,0000.0,0022.85,0004.57,0002.83
2024-03-13 00:44:00,SystemResetWarning,0822.0,4.99,000.00,023.5,022.8,000.0,032.0,025.4,11.3,0000.0,0022.40,0004.65,0002.83
2024-03-13 00:45:00,SystemResetWarning,0821.9,5.00,000.00,023.5,022.8,000.0,032.0,025.4,11.3,0000.0,0022.33,0004.67,0002.83
2024-03-13 00:46:00,SystemResetWarning,0822.0,5.00,000.00,023.5,022.8,000.0,032.0,025.4,11.3,0000.0,0022.11,0004.67,0002.85
2024-03-13 00:47:00,SystemResetWarning,0822.0,5.00,000.00,023.6,022.9,000.0,032.0,025.4,11.4,0000.0,0019.91,0004.76,0002.88
2024-03-13 00:48:00,SystemResetWarning,0822.0,5.00,000.00,023.6,022.9,000.0,032.0,025.4,11.7,0000.0,0019.21,0004.81,0002.89
2024-03-13 00:49:00,SystemResetWarning,0822.0,5.01,000.00,023.6,022.9,000.0,032.0,025.4,12.0,0000.0,0020.40,0004.82,0002.92
2024-03-13 00:50:00,SystemResetWarning,0822.1,5.00,000.00,023.6,022.9,000.0,032.0,025.4,11.9,0000.0,0019.52,0004.82,0002.91
2024-03-13 00:51:00,SystemResetWarning,0822.1,5.00,000.00,023.6,022.9,000.0,032.0,025.4,11.6,0000.0,0018.50,0004.83,0002.95
2024-03-13 00:52:00,SystemResetWarning,0822.1,5.00,000.00,023.6,022.9,000.0,032.0,025.4,11.4,0000.0,0017.59,0004.78,0002.97
2024-03-13 00:53:00,SystemResetWarning,0822.1,4.99,000.00,023.6,022.9,000.0,032.1,025.4,11.3,0000.0,0017.07,0004.74,0002.94
2024-03-13 00:54:00,SystemResetWarning,0822.1,4.99,000.00,023.6,022.9,000.0,032.1,025.4,11.5,0000.0,0015.80,0004.72,0002.95
2024-03-13 00:55:00,SystemResetWarning,0822.1,5.00,000.00,023.6,022.9,000.0,032.1,025.4,11.4,0000.0,0015.24,0004.73,0002.98
2024-03-13 00:56:00,SystemResetWarning,0822.1,5.00,000.00,023.6,022.9,000.0,032.1,025.4,11.5,0000.0,0014.82,0004.66,0002.97
2024-03-13 00:57:00,SystemResetWarning,0822.2,5.00,000.00,023.6,022.9,000.0,032.1,025.4,11.2,0000.0,0015.14,0004.63,0002.96
2024-03-13 00:58:00,SystemResetWarning,0822.2,5.01,000.00,023.6,022.9,000.0,032.1,025.5,11.0,0000.0,0016.56,0004.59,0002.95
2024-03-13 00:59:00,SystemResetWarning,0822.2,5.01,000.00,023.6,022.9,000.0,032.1,025.4,11.0,0000.0,0016.38,0004.56,0002.96
